{"data":{"norad_id":63411,"epoch":"2026-05-24T23:56:24.520128Z","epoch_age_seconds":85820,"freshness":"FRESH","line1":"1 63411U 25065N   26144.99750602  .00026890  00000+0  98247-3 0  9995","line2":"2 63411  42.9995  43.6200 0001174 276.5865  83.4853 15.27601708 64426","mean_motion":15.27601708,"eccentricity":0.0001174,"inclination_deg":42.9995,"raan_deg":43.62,"arg_perigee_deg":276.5865,"mean_anomaly_deg":83.4853,"bstar":0.00098247,"rev_number":6442,"period_min":94.265409135036,"perigee_km":482.17859963141,"apogee_km":483.78959086458,"semimajor_km":6861.121095248,"source":"CELESTRAK","updated_at":"2026-05-25T13:38:19.970836Z"}}